User: anonymous   Login
Location: ??
(34.9170°N, 135.5016°E)
Time: 18:28:21
(UTC+00:00)
Language:

HuskySat-1 - Orbit

View from above orbital plane
View from above orbital plane
View from above satellite
View from above satellite

Ground track
Ground track

The orbit data is extracted from the following two-line orbital elements,

1 45117U 19071G   21106.33520568  .00003106  00000-0  98339-4 0  9994
2 45117  51.6423 337.2976 0010835  71.3063 288.9095 15.35894419 67637
Epoch (UTC): 16 April 2021 08:02:41
Eccentricity: 0.0010835
inclination: 51.6423°
perigee height: 451 km
apogee height: 465 km
right ascension of ascending node: 337.2976°
argument of perigee: 71.3063°
revolutions per day: 15.35894419
mean anomaly at epoch: 288.9095°
orbit number at epoch: 6763

The dashed part of the orbit path shows where the satellite is in the earth's shadow,  

DLR